Showing default

CO3D2, 64902

Orbit data source: Space-Track

CO3D2, 64902 is a payload satellite owned by CNES (FR) in SSO that was launched on Sat, 26 Jul 2025 UTC via a VEGA C launch vehicle from the French Guiana (FRGUI). Payload-class satellites include a variety of spacecraft equipped with specific instruments for various scientific and technological missions. These include communications satellites like Starlink; space stations such as the ISS; scientific satellites like the Hubble; Earth observation satellites from companies like Planet Labs, Umbra, and HawkEye 360; GPS; miniature CubeSats for education and research; and military/defense satellites.

Loading next visibility...
Identifier
64902, 2025-156D
Orbit
SSO
Country
Flag of FRFR
Related business
Manufacturer
Airbus/Toulouse
Mission
Operational spacecraft
Bus & Motor
ASTROBUS-SE, Unknown motor
Mass
285 kg wet, 285 kg dry
Launch date (UTC)
2025-07-26 (1 month ago)
Launch vehicle
VEGA C
Launch site
French Guiana (FRGUI)
Object type
Payload
Rocket body
Debris
Shape & HBR
Unknown
Radar Cross Section
Large (>1 m²)

Expand to show TLE details & history
Last TLE update: 21 hours ago

TLE from 21 hours ago
0 CO3D2
1 64902U 25156D   25242.15190506  .00007981  00000-0  37139-3 0  9993
2 64902  97.4352 319.9192 0001157  79.9262 280.2104 15.20203694  5314
Epoch: 2025-08-30T03:38Z
TLE epoch observation values (Epoch: 2025-08-30T03:38:44.597Z)
Latitude
0.00003°
Longitude
-73.35693°
Altitude
508.174 km
Speed
7.61 km/s
True Right ascension
21h 19m 40s
True Declination
0° 00' 00"
Sunlit
Object was in full shadow at epoch
Visualization orbit readout
Latitude
Unknown
Longitude
Unknown
Altitude
Unknown
Speed
Unknown
Apparent Right ascension
Unknown
Apparent Declination
Unknown
Sunlit
N/A
Visualization observer readout
Local Sidereal Time
16:14:10
Azimuth
Unknown
Elevation
Unknown
Doppler factor
Unknown
Orbital elements
Apogee altitude
502.989 km
Perigee altitude
501.396 km
Semi-major axis
6,880.329 km
Eccentricity
0.00012
Inclination
97.4352°
RAAN
319.9192°
Arg. of periapsis
79.9262°
True anomaly
280.19735°
Mean anomaly
280.2104°
Eccentric anomaly
280.20388°
Mean motion
3.80303 °/min
Orbital period
94.66 mins
BSTAR
0.00037139
Loading maneuver chart data...
Computing Atmospheric mass density...
Loading historical data...
Loading historical data...
Loading historical data...
Loading historical data...
Loading historical data...
Loading historical data...
Loading historical data...
Other satellites on launch #156 in the year 2025 (2025-07-26 UTC)

Documentation

Showing up to 5 results
|